Location: Asheville, NC
(35.6000°N, 82.5500°W)
Time: 17:03:34
(UTC-04:00)

Vanguard 2 Rocket - Pass Details

Date: 11 February 2018
Orbit: 554 x 3327 km, 32.9° (Epoch: 22 May)

Event Time Altitude Azimuth Distance (km) Brightness Sun altitude
Exits shadow 00:27:37 13° 82° (E) 5,999 10.9 -68.1°
Drops below altitude 10° 00:28:59 10° 80° (E) 6,239 11.1 -68.2°
Sets 00:33:58 0° 75° (ENE) 7,135 11.5 -68.3°
